FloripaSat 1
1 44885U 19093G   25175.83888039  .00003504  00000-0  29682-3 0  9990
2 44885  97.8158 263.4710 0011450 152.3125 207.8709 14.98601058299030
RS-44
1 44909U 19096E   25175.48624940  .00000043  00000-0  13675-3 0  9990
2 44909  82.5204 217.3748 0216261 260.6839  96.9750 12.79741434256598
UPMSat 2
1 46276U 20061E   25175.47619245  .00047210  00000-0  38379-3 0  9999
2 46276  97.2432 250.3788 0002342 152.9930 207.1455 15.70567861267800
SALSAT
1 46495U 20068K   25175.86038541  .00004570  00000-0  19775-3 0  9997
2 46495  97.8604 154.5967 0013054 107.2397 253.0268 15.22914891260852
CubeSX-Sirius-HSE
1 47951U 21022V   25157.62701764  .07883385  25648-5  89537-3 0  9993
2 47951  97.4004  72.1904 0010275 223.9924 136.0557 16.36879307233400
CubeSX-HSE
1 47952U 21022W   25157.69972699  .06655353  25454-5  93288-3 0  9992
2 47952  97.3980  72.5414 0010307 219.3637 140.6911 16.34906352233436
GRBAlpha
1 47959U 21022AD  25160.45426279  .07940347  25506-5  90589-3 0  9995
2 47959  97.3899  75.6235 0011032 227.2558 132.7812 16.36806138232695
TUBIN
1 48900U 21059X   25175.78660327  .00032886  00000-0  38147-3 0  9990
2 48900  97.6746 346.2633 0004137 167.1233 193.0130 15.61725599222415
LEDSAT
1 49069U 21073D   25175.68437962  .00048900  00000-0  54595-3 0  9998
2 49069  97.3892 257.8736 0007590  27.7527 332.4135 15.62609350213797
CUTE
1 49263U 21088D   25175.16883810  .00009416  00000-0  18546-3 0  9995
2 49263  97.4514 251.8506 0008441 178.4040 181.7238 15.47417397206684
TeikyoSat 4
1 49396U 21102B   25175.55061705  .00001080  00000-0  74587-4 0  9990
2 49396  97.4092 213.4387 0014234  83.5295 276.7554 15.07695981198801
Z-Sat
1 49399U 21102E   25175.81519343  .00002862  00000-0  15821-3 0  9992
2 49399  97.3789 216.8835 0019369  55.1051 305.1998 15.14521639199288
KOSEN 1
1 49402U 21102H   25175.67656618  .00004739  00000-0  21945-3 0  9997
2 49402  97.3695 220.2785 0016473  32.4242 327.8002 15.20466896199585
HO-113
1 50466U 21131B   25175.83043058  .00000327  00000-0  11597-3 0  9998
2 50466  98.5107 265.1088 0005457  92.6376 267.5437 14.40829972183649
Foresail-1
1 52766U 22057AL  25175.91967501  .04247068  26322-5  67974-3 0  9997
2 52766  97.5950 330.3700 0015269 263.7444 254.3868 16.33376608172360
SNUGLITE 2
1 52899U 22065F   25175.32916236  .00000725  00000-0  14980-3 0  9999
2 52899  98.1705 317.1602 0008820  71.5505 288.6655 14.63243100158644
UmKA 1 (RS40S)
1 57172U 23091G   25175.85964398  .00003412  00000-0  18347-3 0  9995
2 57172  97.5574 231.1627 0012695 282.5763  77.4049 15.15495794109796
CubeBel-2 (EU11S)
1 57175U 23091K   25175.78315578  .00005971  00000-0  28365-3 0  9993
2 57175  97.5574 232.3260 0010433 290.7954  69.2162 15.19564179109867
VERONIKA
1 58261U 23174F   25175.79305686  .00132339  00000-0  89243-3 0  9993
2 58261  97.4115 262.9303 0002730 278.5121  81.5834 15.74714653 91073
ENSO
1 58470U 23185J   25175.87250431  .00040892  00000-0  55879-3 0  9993
2 58470  97.3736 251.4975 0005774  37.6017 322.5641 15.57332624 87412
EIRSAT-1
1 58472U 23185L   25175.88716997  .00094866  00000-0  76889-3 0  9994
2 58472  97.3679 253.6967 0002244  42.1129 318.0306 15.70472632 87562
SONATE-2
1 59112U 24043Q   25175.08763691  .00010772  00000-0  30718-3 0  9990
2 59112  97.5150 306.5613 0011914  67.4847 292.7656 15.36175320 72563
MO-122
1 60209U 24125G   25175.55467915  .00010963  00000-0  30730-3 0  9998
2 60209  97.2774  27.0089 0020246  85.2397 275.1159 15.36561229 54255
GRBBeta
1 60237U 24128C   25175.04259047  .00002819  00000-0  21935-3 0  9999
2 60237  61.9921  29.1276 0053052  60.7860 299.8521 15.02745480 52376
Curium One
1 60242U 24128H   25175.58634040  .00004868  00000-0  34296-3 0  9994
2 60242  61.9823  25.3021 0052952  57.1067 303.5104 15.05306487 52492
ROBUSTA-3A
1 60243U 24128J   25175.59368431  .00004714  00000-0  33721-3 0  9996
2 60243  61.9891  26.1547 0051847  54.7924 305.8006 15.04836363 52482
CatSat
1 60246U 24125J   25175.53289992  .00006496  00000-0  21574-3 0  9996
2 60246  97.2573  26.0306 0043269  42.9788 317.4820 15.30629390 52271
HYPERVIEW-1G (RS66S)
1 61772U 24199AP  25175.85751724  .00013494  00000-0  38564-3 0  9997
2 61772  97.3517  44.6880 0015013 133.4735 226.7760 15.36001060 79304
AO-123
1 61781U 24199AY  25175.76855971  .00004687  00000-0  17084-3 0  9994
2 61781  97.3531  43.3222 0016959 139.3809 220.8699 15.28531083 79202
ZIMSAT 2
1 61783U 24199BA  25175.85635496  .00026672  00000-0  63257-3 0  9995
2 61783  97.3491  45.4193 0014964 130.7850 229.4698 15.41588196 82507
HADES-R (SO-124)
1 62690U 25009CK  25175.45983487  .00019908  00000-0  68665-3 0  9998
2 62690  97.4097 256.2148 0003069  73.0838 287.0739 15.30018047 24423
HYDRA-T
1 62692U 25009CM  25175.18116550  .00020191  00000-0  69072-3 0  9998
2 62692  97.4100 255.9767 0002742  70.1803 289.9733 15.30282332 24380
JINJUSat 1B
1 63210U 25052A   25175.13666980  .00005914  00000-0  27046-3 0  9996
2 63210  97.4412  69.0774 0002281 272.0663  88.0311 15.20911909 15467
NUSHSAT 1
1 63211U 25052B   25175.65553242  .00007951  00000-0  35967-3 0  9994
2 63211  97.4399  69.5944 0002275 279.2897  80.8081 15.21177894 15548
TEVEL2-4
1 63213U 25052D   25175.67213224  .00006997  00000-0  31979-3 0  9999
2 63213  97.4318  69.4643 0001708 319.3142  40.7966 15.20868835 15543
TEVEL2-5
1 63214U 25052E   25175.67291248  .00007043  00000-0  32207-3 0  9990
2 63214  97.4318  69.4636 0001747 319.7878  40.3228 15.20848344 15549
TEVEL2-6
1 63215U 25052F   25175.14907485  .00006033  00000-0  27676-3 0  9992
2 63215  97.4320  68.9425 0001838 324.0102  36.1010 15.20800260 15461
TEVEL2-1
1 63217U 25052H   25175.42546239  .00006291  00000-0  29027-3 0  9999
2 63217  97.4293  69.1523 0002397 341.6302  18.4847 15.20583588 15509
TEVEL2-2
1 63218U 25052J   25175.68898254  .00006815  00000-0  31408-3 0  9993
2 63218  97.4293  69.4121 0002385 341.4266  18.6881 15.20589667 15549
TEVEL2-3
1 63219U 25052K   25175.68915776  .00006758  00000-0  31156-3 0  9999
2 63219  97.4291  69.4115 0002414 340.5923  19.5220 15.20583464 15540
TEVEL2-8
1 63237U 25052AD  25175.43730407  .00006518  00000-0  31118-3 0  9990
2 63237  97.4359  69.0684 0007057 336.5294  23.5618 15.19367828 15498
TEVEL2-9
1 63238U 25052AE  25175.63782349  .00006887  00000-0  32916-3 0  9991
2 63238  97.4359  69.2613 0007095 335.5360  24.5537 15.19308727 15526
TEVEL2-7
1 63239U 25052AF  25175.64011567  .00006994  00000-0  33457-3 0  9990
2 63239  97.4359  69.2571 0007152 335.9605  24.1295 15.19274699 15527
HYDRA-W
1 63490U 25052BL  25175.65133796  .00016642  00000-0  69041-3 0  9998
2 63490  97.4307  69.6329 0010193 328.5919  31.4709 15.23889381 15558
HADES-ICM (SO-125)
1 63492U 25052BN  25175.14520098  .00013064  00000-0  55055-3 0  9994
2 63492  97.4312  69.0933 0010630 334.4123  25.6587 15.23408889 15470
